When you browse on this site, cookies collect data to enhance your experience and personalize the content and advertising you see.
Visit our Privacy Policy to learn more. By continuing to use the site, you agree to this use of cookies and data.
EN

Hourly Weather Uyutne

Today, 6 August, Thursday

Time Temperature Precipitation Wind Pressure Humidity
00:00 +22°C° 0 mm 5 mps 759 mmHg 59%
01:00 +21°C° 0 mm 5 mps 759 mmHg 61%
02:00 +21°C° 0 mm 5 mps 759 mmHg 64%
03:00 +21°C° 0 mm 5 mps 759 mmHg 65%
04:00 +21°C° 0 mm 5 mps 759 mmHg 66%
05:00 +21°C° 0 mm 5 mps 759 mmHg 67%
06:00 +23°C° 0 mm 5 mps 760 mmHg 61%
07:00 +27°C° 0 mm 5 mps 760 mmHg 56%
08:00 +29°C° 0 mm 5 mps 760 mmHg 51%
09:00 +32°C° 0 mm 5 mps 760 mmHg 46%
10:00 +34°C° 0 mm 5 mps 760 mmHg 41%
11:00 +35°C° 0 mm 5 mps 760 mmHg 37%
12:00 +35°C° 0 mm 5 mps 760 mmHg 36%
13:00 +36°C° 0 mm 6 mps 760 mmHg 35%
14:00 +36°C° 0 mm 7 mps 760 mmHg 34%
15:00 +35°C° 0 mm 7 mps 760 mmHg 34%
16:00 +35°C° 0 mm 7 mps 760 mmHg 35%
17:00 +35°C° 0 mm 7 mps 760 mmHg 35%
18:00 +33°C° 0 mm 6 mps 760 mmHg 39%
19:00 +30°C° 0 mm 5 mps 760 mmHg 43%
20:00 +28°C° 0 mm 5 mps 760 mmHg 46%
21:00 +28°C° 0 mm 5 mps 760 mmHg 49%
22:00 +27°C° 0 mm 4 mps 760 mmHg 51%
23:00 +27°C° 0 mm 4 mps 760 mmHg 53%

Tomorrow, 7 August, Friday

Time Temperature Precipitation Wind Pressure Humidity
00:00 +26°C° 0 mm 5 mps 760 mmHg 55%
01:00 +26°C° 0 mm 5 mps 760 mmHg 57%
02:00 +26°C° 0 mm 5 mps 760 mmHg 58%
03:00 +26°C° 0 mm 5 mps 760 mmHg 61%
04:00 +25°C° 0 mm 5 mps 760 mmHg 64%
05:00 +24°C° 0 mm 6 mps 760 mmHg 68%
06:00 +27°C° 0 mm 6 mps 760 mmHg 61%
07:00 +30°C° 0 mm 6 mps 760 mmHg 55%
08:00 +33°C° 0 mm 6 mps 760 mmHg 49%
09:00 +34°C° 0 mm 6 mps 760 mmHg 44%
10:00 +36°C° 0 mm 7 mps 760 mmHg 39%
11:00 +38°C° 0 mm 7 mps 760 mmHg 33%
12:00 +38°C° 0 mm 7 mps 760 mmHg 32%
13:00 +39°C° 0 mm 7 mps 760 mmHg 31%
14:00 +39°C° 0 mm 7 mps 759 mmHg 30%
15:00 +38°C° 0 mm 7 mps 759 mmHg 30%
16:00 +38°C° 0 mm 7 mps 759 mmHg 30%
17:00 +36°C° 0 mm 7 mps 759 mmHg 30%
18:00 +34°C° 0 mm 6 mps 759 mmHg 36%
19:00 +33°C° 0 mm 6 mps 759 mmHg 41%
20:00 +30°C° 0 mm 5 mps 759 mmHg 46%
21:00 +29°C° 0 mm 5 mps 759 mmHg 50%
22:00 +28°C° 0 mm 5 mps 759 mmHg 54%
23:00 +28°C° 0 mm 5 mps 758 mmHg 57%

Day after tomorrow, 8 August, Saturday

Time Temperature Precipitation Wind Pressure Humidity
00:00 +27°C° 0 mm 5 mps 758 mmHg 58%
01:00 +27°C° 0 mm 6 mps 758 mmHg 59%
02:00 +27°C° 0 mm 6 mps 758 mmHg 59%
03:00 +27°C° 0 mm 6 mps 758 mmHg 59%
04:00 +27°C° 0 mm 7 mps 758 mmHg 59%
05:00 +26°C° 0 mm 7 mps 758 mmHg 59%
06:00 +28°C° 0 mm 7 mps 758 mmHg 56%
07:00 +29°C° 0 mm 7 mps 758 mmHg 52%
08:00 +30°C° 0 mm 7 mps 758 mmHg 49%
09:00 +33°C° 0 mm 7 mps 758 mmHg 45%
10:00 +34°C° 0 mm 7 mps 758 mmHg 41%
11:00 +35°C° 0 mm 7 mps 758 mmHg 37%
12:00 +35°C° 0 mm 7 mps 758 mmHg 36%
13:00 +36°C° 0 mm 7 mps 757 mmHg 35%
14:00 +36°C° 0 mm 7 mps 757 mmHg 34%
15:00 +35°C° 0 mm 7 mps 757 mmHg 34%
16:00 +35°C° 0 mm 7 mps 757 mmHg 34%
17:00 +34°C° 0 mm 7 mps 756 mmHg 35%
18:00 +33°C° 0 mm 7 mps 756 mmHg 41%
19:00 +30°C° 0 mm 6 mps 757 mmHg 47%
20:00 +29°C° 0 mm 6 mps 757 mmHg 53%
21:00 +28°C° 0 mm 6 mps 757 mmHg 56%
22:00 +27°C° 0 mm 6 mps 756 mmHg 60%
23:00 +27°C° 0 mm 6 mps 756 mmHg 63%

9 August, Sunday

Time Temperature Precipitation Wind Pressure Humidity
00:00 +26°C° 0 mm 6 mps 756 mmHg 61%
01:00 +26°C° 0 mm 7 mps 756 mmHg 59%
02:00 +26°C° 0 mm 7 mps 756 mmHg 57%
03:00 +26°C° 0 mm 7 mps 756 mmHg 59%
04:00 +24°C° 0 mm 8 mps 756 mmHg 62%
05:00 +24°C° 0 mm 8 mps 756 mmHg 65%
06:00 +26°C° 0 mm 8 mps 756 mmHg 60%
07:00 +27°C° 0 mm 8 mps 756 mmHg 55%
08:00 +28°C° 0 mm 8 mps 756 mmHg 51%
09:00 +29°C° 0 mm 8 mps 756 mmHg 47%
10:00 +31°C° 0 mm 8 mps 757 mmHg 43%
11:00 +32°C° 0 mm 8 mps 757 mmHg 39%
12:00 +32°C° 0 mm 8 mps 757 mmHg 38%
13:00 +33°C° 0 mm 8 mps 756 mmHg 37%
14:00 +33°C° 0 mm 8 mps 756 mmHg 35%
15:00 +33°C° 0 mm 8 mps 756 mmHg 35%
16:00 +32°C° 0 mm 8 mps 756 mmHg 34%
17:00 +32°C° 0 mm 8 mps 756 mmHg 34%
18:00 +29°C° 0 mm 7 mps 756 mmHg 37%
19:00 +27°C° 0 mm 6 mps 756 mmHg 41%
20:00 +26°C° 0 mm 5 mps 756 mmHg 45%
21:00 +24°C° 0 mm 6 mps 756 mmHg 49%
22:00 +23°C° 0 mm 6 mps 756 mmHg 53%
23:00 +23°C° 0 mm 6 mps 757 mmHg 57%

10 August, Monday

Time Temperature Precipitation Wind Pressure Humidity
00:00 +22°C° 0 mm 6 mps 756 mmHg 58%
01:00 +22°C° 0 mm 6 mps 756 mmHg 60%
02:00 +22°C° 0 mm 7 mps 756 mmHg 61%
03:00 +22°C° 0 mm 7 mps 756 mmHg 60%
04:00 +21°C° 0 mm 7 mps 756 mmHg 59%
05:00 +21°C° 0 mm 7 mps 756 mmHg 58%
06:00 +23°C° 0 mm 7 mps 757 mmHg 51%
07:00 +27°C° 0 mm 7 mps 757 mmHg 44%
08:00 +29°C° 0 mm 6 mps 757 mmHg 37%
09:00 +30°C° 0 mm 6 mps 757 mmHg 34%
10:00 +32°C° 0 mm 6 mps 757 mmHg 31%
11:00 +33°C° 0 mm 6 mps 757 mmHg 28%
12:00 +33°C° 0 mm 6 mps 757 mmHg 27%
13:00 +34°C° 0 mm 6 mps 757 mmHg 27%
14:00 +34°C° 0 mm 6 mps 757 mmHg 26%
15:00 +33°C° 0 mm 6 mps 757 mmHg 26%
16:00 +33°C° 0 mm 6 mps 757 mmHg 25%
17:00 +33°C° 0 mm 5 mps 757 mmHg 25%
18:00 +30°C° 0 mm 5 mps 757 mmHg 30%
19:00 +28°C° 0 mm 4 mps 757 mmHg 35%
20:00 +26°C° 0 mm 4 mps 757 mmHg 40%
21:00 +25°C° 0 mm 4 mps 757 mmHg 44%
22:00 +25°C° 0 mm 4 mps 757 mmHg 48%
23:00 +23°C° 0 mm 4 mps 757 mmHg 51%

11 August, Tuesday

Time Temperature Precipitation Wind Pressure Humidity
00:00 +23°C° 0 mm 4 mps 757 mmHg 53%
01:00 +22°C° 0 mm 3 mps 757 mmHg 56%
02:00 +22°C° 0 mm 3 mps 757 mmHg 58%
03:00 +21°C° 0 mm 3 mps 757 mmHg 58%
04:00 +21°C° 0 mm 3 mps 757 mmHg 58%
05:00 +21°C° 0 mm 2 mps 757 mmHg 59%
06:00 +24°C° 0 mm 2 mps 757 mmHg 51%
07:00 +26°C° 0 mm 2 mps 757 mmHg 44%
08:00 +29°C° 0 mm 2 mps 757 mmHg 37%
09:00 +30°C° 0 mm 2 mps 757 mmHg 33%
10:00 +31°C° 0 mm 3 mps 757 mmHg 30%
11:00 +34°C° 0 mm 3 mps 758 mmHg 26%
12:00 +34°C° 0 mm 4 mps 757 mmHg 26%
13:00 +35°C° 0 mm 5 mps 757 mmHg 26%
14:00 +35°C° 0 mm 6 mps 757 mmHg 26%
15:00 +35°C° 0 mm 6 mps 757 mmHg 27%
16:00 +34°C° 0 mm 6 mps 757 mmHg 28%
17:00 +34°C° 0 mm 6 mps 757 mmHg 30%
18:00 +32°C° 0 mm 6 mps 757 mmHg 35%
19:00 +29°C° 0 mm 5 mps 757 mmHg 39%
20:00 +27°C° 0 mm 5 mps 757 mmHg 44%
21:00 +26°C° 0 mm 4 mps 757 mmHg 47%
22:00 +26°C° 0 mm 4 mps 757 mmHg 50%
23:00 +25°C° 0 mm 3 mps 757 mmHg 52%
Show more